User: anonymous   Login
Location: SAPM � Hemmingford
(45.0500°N, 73.5833°W)
Time: 14:49:42
(UTC-04:00)
Language:

Cosmos 1603 - Orbit

View from above orbital plane
View from above orbital plane
View from above satellite
View from above satellite

Ground track
Ground track

The orbit data is extracted from the following two-line orbital elements,

1 15333U 84106A   16145.91470210 -.00000032 +00000-0 +81248-5 0  9999
2 15333 071.0265 185.3890 0017418 075.9370 284.3687 14.14040275633136
Epoch (UTC): 24 May 2016 21:57:10
Eccentricity: 0.0017418
inclination: 71.0265°
perigee height: 833 km
apogee height: 858 km
right ascension of ascending node: 185.3890°
argument of perigee: 75.9370°
revolutions per day: 14.14040275
mean anomaly at epoch: 284.3687°
orbit number at epoch: 63313

The dashed part of the orbit path shows where the satellite is in the earth's shadow,  

DLR